sat.trackr.live / text

‹ back to catalog

STARLINK-32001

NORAD 60110 · 2024-117V

PAYLOAD ACTIVE UNKNOWN

§ Identity

Operator
Country
US
Launch date
2024-06-23
Launch site
AFETR
Launch vehicle
Mass (kg)
RCS (m²)

Purposes: comms

External: N2YO · Heavens-Above · Gunter

§ Orbital elements

Epoch: 2026-05-25T03:07:51.165120Z

Period
94.11 min
Inclination
53.1620°
Eccentricity
0.0001150
Mean motion
15.30187924 rev/d
Perigee alt
474.5 km
Apogee alt
476.0 km
Semi-major
6,853.4 km
B*
-2.1151e-5
RAAN
41.7957°
Arg perigee
122.3536°
Mean anomaly
237.7576°
Rev number
10,859

§ Raw data

STARLINK-320011 60110U 24117V   26145.13045330 -.00000985  00000+0 -21151-4 0  99972 60110  53.1620  41.7957 0001150 122.3536 237.7576 15.30187924108599

JSON: /api/v1/satellites/60110 · /tle

For live sub-satellite position, see the globe view (requires WebGL).

§ Visibility from observer

Set your observer location to see the next 7 days of passes ≥ 10°. The values pass through the URL so the page stays shareable.

No JS? Fill the form by hand. The geolocation button needs JavaScript.